Time,TemperatureF,DewpointF,PressureIn,WindDirection,WindDirectionDegrees,WindSpeedMPH,WindSpeedGustMPH,Humidity,HourlyPrecipIn,Conditions,Clouds,dailyrainin,SoftwareType,DateUTC
2013-01-02 00:00:00,21.9,18.6,28.04,NW,307,8.0,10.0,87,0.00,,,0.84,WUHU216DAVISWMX,2013-01-02 05:00:00,
2013-01-02 00:02:00,21.9,18.3,28.04,NW,308,2.0,10.0,86,0.00,,,0.84,WUHU216DAVISWMX,2013-01-02 05:02:00,
2013-01-02 00:03:00,21.9,18.3,28.04,NW,315,7.0,10.0,86,0.00,,,0.84,WUHU216DAVISWMX,2013-01-02 05:03:00,
2013-01-02 00:08:00,21.8,18.2,28.04,WNW,296,5.0,10.0,86,0.00,,,0.84,WUHU216DAVISWMX,2013-01-02 05:08:00,
2013-01-02 00:13:00,21.8,18.2,28.04,NW,304,3.0,12.0,86,0.00,,,0.84,WUHU216DAVISWMX,2013-01-02 05:13:00,
2013-01-02 00:18:00,21.8,18.2,28.04,WNW,299,7.0,12.0,86,0.00,,,0.84,WUHU216DAVISWMX,2013-01-02 05:18:00,
2013-01-02 00:23:00,21.7,18.1,28.04,WNW,297,5.0,9.0,86,0.00,,,0.84,WUHU216DAVISWMX,2013-01-02 05:23:00,
2013-01-02 00:28:00,21.6,18.0,28.04,WNW,301,5.0,9.0,86,0.00,,,0.84,WUHU216DAVISWMX,2013-01-02 05:28:00,
2013-01-02 00:33:00,21.6,18.0,28.04,West,274,2.0,7.0,86,0.00,,,0.84,WUHU216DAVISWMX,2013-01-02 05:33:00,
2013-01-02 00:38:00,21.5,18.2,28.04,West,274,4.0,7.0,87,0.00,,,0.84,WUHU216DAVISWMX,2013-01-02 05:38:00,
2013-01-02 00:43:00,21.5,17.9,28.05,WNW,295,1.0,5.0,86,0.00,,,0.84,WUHU216DAVISWMX,2013-01-02 05:43:00,
2013-01-02 00:48:00,21.3,17.7,28.05,NW,308,5.0,7.0,86,0.00,,,0.84,WUHU216DAVISWMX,2013-01-02 05:48:00,
2013-01-02 00:53:00,21.3,17.7,28.05,WNW,293,4.0,11.0,86,0.00,,,0.84,WUHU216DAVISWMX,2013-01-02 05:53:00,
2013-01-02 00:58:00,21.2,17.6,28.05,WNW,301,6.0,11.0,86,0.00,,,0.84,WUHU216DAVISWMX,2013-01-02 05:58:00,
2013-01-02 01:03:00,21.1,17.5,28.05,WNW,289,7.0,9.0,86,0.00,,,0.84,WUHU216DAVISWMX,2013-01-02 06:03:00,
2013-01-02 01:08:00,20.9,17.3,28.03,NW,312,5.0,9.0,86,0.00,,,0.84,WUHU216DAVISWMX,2013-01-02 06:08:00,
2013-01-02 01:13:00,20.9,17.3,28.03,NW,316,5.0,9.0,86,0.00,,,0.84,WUHU216DAVISWMX,2013-01-02 06:13:00,
2013-01-02 01:18:00,20.8,17.2,28.03,WNW,296,1.0,7.0,86,0.00,,,0.84,WUHU216DAVISWMX,2013-01-02 06:18:00,
2013-01-02 01:23:00,20.6,17.3,28.03,WNW,292,3.0,9.0,87,0.00,,,0.84,WUHU216DAVISWMX,2013-01-02 06:23:00,
2013-01-02 01:28:00,20.6,17.3,28.04,WNW,294,4.0,9.0,87,0.00,,,0.84,WUHU216DAVISWMX,2013-01-02 06:28:00,
2013-01-02 01:33:00,20.6,17.3,28.03,WNW,298,6.0,9.0,87,0.00,,,0.84,WUHU216DAVISWMX,2013-01-02 06:33:00,
2013-01-02 01:38:00,20.5,16.9,28.03,NW,306,7.0,9.0,86,0.00,,,0.84,WUHU216DAVISWMX,2013-01-02 06:38:00,
2013-01-02 01:43:00,20.4,17.1,28.03,WNW,282,0.0,11.0,87,0.00,,,0.84,WUHU216DAVISWMX,2013-01-02 06:43:00,
2013-01-02 01:48:00,20.5,17.2,28.03,WNW,282,0.0,11.0,87,0.00,,,0.84,WUHU216DAVISWMX,2013-01-02 06:48:00,
2013-01-02 01:53:00,20.5,17.2,28.03,WNW,282,0.0,0.0,87,0.00,,,0.84,WUHU216DAVISWMX,2013-01-02 06:53:00,
2013-01-02 01:58:00,20.4,17.1,28.03,WNW,282,0.0,0.0,87,0.00,,,0.84,WUHU216DAVISWMX,2013-01-02 06:58:00,
2013-01-02 02:03:00,20.5,17.2,28.03,WNW,282,0.0,0.0,87,0.00,,,0.84,WUHU216DAVISWMX,2013-01-02 07:03:00,
2013-01-02 02:08:00,20.5,17.2,28.03,WNW,282,0.0,0.0,87,0.00,,,0.84,WUHU216DAVISWMX,2013-01-02 07:08:00,
2013-01-02 02:11:00,20.5,17.2,28.03,WNW,282,0.0,0.0,87,0.00,,,0.84,WUHU216DAVISWMX,2013-01-02 07:11:00,
2013-01-02 02:13:00,20.5,17.2,28.03,WNW,282,0.0,0.0,87,0.00,,,0.84,WUHU216DAVISWMX,2013-01-02 07:13:00,
2013-01-02 02:18:00,20.5,17.2,28.03,WNW,282,0.0,0.0,87,0.00,,,0.84,WUHU216DAVISWMX,2013-01-02 07:18:00,
2013-01-02 03:03:00,19.4,15.9,28.05,WNW,300,2.0,2.0,86,0.00,,,0.84,WUHU216DAVISWMX,2013-01-02 08:03:00,
2013-01-02 03:08:00,19.5,16.2,28.05,WNW,300,5.0,6.0,87,0.00,,,0.84,WUHU216DAVISWMX,2013-01-02 08:08:00,
2013-01-02 03:13:00,19.3,16.0,28.05,WNW,290,9.0,9.0,87,0.00,,,0.84,WUHU216DAVISWMX,2013-01-02 08:13:00,
2013-01-02 03:18:00,19.2,15.9,28.06,West,280,4.0,9.0,87,0.00,,,0.84,WUHU216DAVISWMX,2013-01-02 08:18:00,
2013-01-02 03:23:00,19.2,15.9,28.06,NW,310,5.0,9.0,87,0.00,,,0.84,WUHU216DAVISWMX,2013-01-02 08:23:00,
2013-01-02 03:28:00,19.0,15.7,28.06,WNW,300,4.0,11.0,87,0.00,,,0.84,WUHU216DAVISWMX,2013-01-02 08:28:00,
2013-01-02 03:33:00,19.0,15.7,28.06,WNW,296,13.0,13.0,87,0.00,,,0.84,WUHU216DAVISWMX,2013-01-02 08:33:00,
2013-01-02 03:38:00,18.9,15.6,28.06,NW,306,7.0,13.0,87,0.00,,,0.84,WUHU216DAVISWMX,2013-01-02 08:38:00,
2013-01-02 03:43:00,18.7,15.4,28.06,WNW,289,9.0,12.0,87,0.00,,,0.84,WUHU216DAVISWMX,2013-01-02 08:43:00,
2013-01-02 03:48:00,18.7,15.4,28.06,WNW,295,5.0,12.0,87,0.00,,,0.84,WUHU216DAVISWMX,2013-01-02 08:48:00,
2013-01-02 03:53:00,18.6,15.3,28.07,WNW,290,9.0,11.0,87,0.00,,,0.84,WUHU216DAVISWMX,2013-01-02 08:53:00,
2013-01-02 03:58:00,18.6,15.3,28.06,WNW,298,3.0,11.0,87,0.00,,,0.84,WUHU216DAVISWMX,2013-01-02 08:58:00,
2013-01-02 04:03:00,18.4,15.1,28.06,WNW,292,4.0,7.0,87,0.00,,,0.84,WUHU216DAVISWMX,2013-01-02 09:03:00,
2013-01-02 04:08:00,18.4,15.1,28.06,NW,305,7.0,8.0,87,0.00,,,0.84,WUHU216DAVISWMX,2013-01-02 09:08:00,
2013-01-02 04:13:00,18.3,15.0,28.06,West,277,7.0,9.0,87,0.00,,,0.84,WUHU216DAVISWMX,2013-01-02 09:13:00,
2013-01-02 04:18:00,18.2,14.7,28.06,WNW,285,4.0,9.0,86,0.00,,,0.84,WUHU216DAVISWMX,2013-01-02 09:18:00,
2013-01-02 04:23:00,18.1,14.6,28.05,WNW,297,5.0,9.0,86,0.00,,,0.84,WUHU216DAVISWMX,2013-01-02 09:23:00,
2013-01-02 04:28:00,18.0,14.2,28.06,WNW,285,3.0,9.0,85,0.00,,,0.84,WUHU216DAVISWMX,2013-01-02 09:28:00,
2013-01-02 04:33:00,18.0,14.5,28.06,WNW,285,3.0,9.0,86,0.00,,,0.84,WUHU216DAVISWMX,2013-01-02 09:33:00,
2013-01-02 04:38:00,17.9,14.1,28.05,West,275,3.0,9.0,85,0.00,,,0.84,WUHU216DAVISWMX,2013-01-02 09:38:00,
2013-01-02 04:43:00,17.8,14.0,28.06,West,280,2.0,9.0,85,0.00,,,0.84,WUHU216DAVISWMX,2013-01-02 09:43:00,
2013-01-02 04:48:00,17.8,14.0,28.06,West,279,0.0,7.0,85,0.00,,,0.84,WUHU216DAVISWMX,2013-01-02 09:48:00,
2013-01-02 04:53:00,17.8,14.0,28.06,NW,309,1.0,8.0,85,0.00,,,0.84,WUHU216DAVISWMX,2013-01-02 09:53:00,
2013-01-02 04:58:00,17.6,13.8,28.06,West,277,9.0,9.0,85,0.00,,,0.84,WUHU216DAVISWMX,2013-01-02 09:58:00,
2013-01-02 05:03:00,17.7,13.9,28.06,NW,321,0.0,9.0,85,0.00,,,0.84,WUHU216DAVISWMX,2013-01-02 10:03:00,
2013-01-02 05:08:00,17.6,13.8,28.07,NW,321,0.0,6.0,85,0.00,,,0.84,WUHU216DAVISWMX,2013-01-02 10:08:00,
2013-01-02 05:13:00,17.6,13.8,28.07,NW,321,0.0,0.0,85,0.00,,,0.84,WUHU216DAVISWMX,2013-01-02 10:13:00,
2013-01-02 05:18:00,17.7,13.9,28.07,NW,321,0.0,0.0,85,0.00,,,0.84,WUHU216DAVISWMX,2013-01-02 10:18:00,
2013-01-02 05:23:00,17.7,13.9,28.07,NW,321,0.0,0.0,85,0.00,,,0.84,WUHU216DAVISWMX,2013-01-02 10:23:00,
2013-01-02 05:27:00,17.7,13.9,28.07,NW,321,0.0,0.0,85,0.00,,,0.84,WUHU216DAVISWMX,2013-01-02 10:27:00,
2013-01-02 05:28:00,17.7,13.9,28.07,NW,321,0.0,0.0,85,0.00,,,0.84,WUHU216DAVISWMX,2013-01-02 10:28:00,
2013-01-02 05:33:00,17.7,13.9,28.07,NW,321,0.0,0.0,85,0.00,,,0.84,WUHU216DAVISWMX,2013-01-02 10:33:00,
2013-01-02 06:02:00,16.8,12.5,28.08,West,276,9.0,9.0,83,0.00,,,0.84,WUHU216DAVISWMX,2013-01-02 11:02:00,
2013-01-02 06:07:00,16.8,12.2,28.08,WNW,289,3.0,11.0,82,0.00,,,0.84,WUHU216DAVISWMX,2013-01-02 11:07:00,
2013-01-02 06:12:00,16.8,12.5,28.07,WNW,282,9.0,13.0,83,0.00,,,0.84,WUHU216DAVISWMX,2013-01-02 11:12:00,
2013-01-02 06:17:00,16.8,12.2,28.08,WNW,292,8.0,14.0,82,0.00,,,0.84,WUHU216DAVISWMX,2013-01-02 11:17:00,
2013-01-02 06:22:00,16.8,12.2,28.08,NW,311,2.0,14.0,82,0.00,,,0.84,WUHU216DAVISWMX,2013-01-02 11:22:00,
2013-01-02 06:27:00,16.8,12.2,28.08,WNW,300,14.0,14.0,82,0.00,,,0.84,WUHU216DAVISWMX,2013-01-02 11:27:00,
2013-01-02 06:32:00,16.8,12.5,28.08,WNW,298,5.0,14.0,83,0.00,,,0.84,WUHU216DAVISWMX,2013-01-02 11:32:00,
2013-01-02 06:37:00,16.8,12.2,28.09,WNW,299,8.0,14.0,82,0.00,,,0.84,WUHU216DAVISWMX,2013-01-02 11:37:00,
2013-01-02 06:42:00,16.7,12.1,28.09,WNW,284,6.0,14.0,82,0.00,,,0.84,WUHU216DAVISWMX,2013-01-02 11:42:00,
2013-01-02 06:47:00,16.7,12.1,28.09,WNW,302,7.0,12.0,82,0.00,,,0.84,WUHU216DAVISWMX,2013-01-02 11:47:00,
2013-01-02 06:52:00,16.7,12.1,28.10,NW,306,4.0,14.0,82,0.00,,,0.84,WUHU216DAVISWMX,2013-01-02 11:52:00,
2013-01-02 06:57:00,16.7,12.1,28.10,WNW,299,8.0,14.0,82,0.00,,,0.84,WUHU216DAVISWMX,2013-01-02 11:57:00,
2013-01-02 07:02:00,16.7,12.1,28.10,WNW,284,0.0,13.0,82,0.00,,,0.84,WUHU216DAVISWMX,2013-01-02 12:02:00,
2013-01-02 07:07:00,16.7,12.1,28.10,WNW,283,0.0,9.0,82,0.00,,,0.84,WUHU216DAVISWMX,2013-01-02 12:07:00,
2013-01-02 07:12:00,16.7,12.1,28.11,WNW,284,0.0,0.0,82,0.00,,,0.84,WUHU216DAVISWMX,2013-01-02 12:12:00,
2013-01-02 07:17:00,16.7,12.1,28.10,WNW,284,0.0,0.0,82,0.00,,,0.84,WUHU216DAVISWMX,2013-01-02 12:17:00,
2013-01-02 07:22:00,16.7,12.1,28.11,WNW,283,0.0,0.0,82,0.00,,,0.84,WUHU216DAVISWMX,2013-01-02 12:22:00,
2013-01-02 07:27:00,16.7,12.1,28.11,WNW,284,0.0,0.0,82,0.00,,,0.84,WUHU216DAVISWMX,2013-01-02 12:27:00,
2013-01-02 07:29:00,16.7,12.1,28.11,WNW,284,0.0,0.0,82,0.00,,,0.84,WUHU216DAVISWMX,2013-01-02 12:29:00,
2013-01-02 07:32:00,16.7,12.1,28.11,WNW,284,0.0,0.0,82,0.00,,,0.84,WUHU216DAVISWMX,2013-01-02 12:32:00,
2013-01-02 07:37:00,16.7,12.1,28.11,WNW,284,0.0,0.0,82,0.00,,,0.84,WUHU216DAVISWMX,2013-01-02 12:37:00,
2013-01-02 08:03:00,16.6,11.8,28.12,WNW,284,5.0,5.0,81,0.00,,,0.84,WUHU216DAVISWMX,2013-01-02 13:03:00,
2013-01-02 08:08:00,16.6,11.8,28.12,WNW,288,6.0,12.0,81,0.00,,,0.84,WUHU216DAVISWMX,2013-01-02 13:08:00,
2013-01-02 08:13:00,16.6,11.8,28.12,WNW,285,8.0,12.0,81,0.00,,,0.84,WUHU216DAVISWMX,2013-01-02 13:13:00,
2013-01-02 08:18:00,16.8,12.0,28.13,WNW,283,15.0,15.0,81,0.00,,,0.84,WUHU216DAVISWMX,2013-01-02 13:18:00,
2013-01-02 08:23:00,16.6,11.5,28.12,WNW,289,6.0,15.0,80,0.00,,,0.84,WUHU216DAVISWMX,2013-01-02 13:23:00,
2013-01-02 08:28:00,16.6,11.5,28.12,WNW,296,10.0,13.0,80,0.00,,,0.84,WUHU216DAVISWMX,2013-01-02 13:28:00,
2013-01-02 08:33:00,16.6,11.5,28.13,WNW,293,8.0,13.0,80,0.00,,,0.84,WUHU216DAVISWMX,2013-01-02 13:33:00,
2013-01-02 08:38:00,16.6,11.5,28.13,WNW,284,9.0,13.0,80,0.00,,,0.84,WUHU216DAVISWMX,2013-01-02 13:38:00,
2013-01-02 08:43:00,16.6,11.2,28.14,WNW,284,7.0,17.0,79,0.00,,,0.84,WUHU216DAVISWMX,2013-01-02 13:43:00,
2013-01-02 08:48:00,16.6,11.2,28.13,WNW,285,4.0,17.0,79,0.00,,,0.84,WUHU216DAVISWMX,2013-01-02 13:48:00,
2013-01-02 08:53:00,16.6,10.9,28.13,NW,305,9.0,14.0,78,0.00,,,0.84,WUHU216DAVISWMX,2013-01-02 13:53:00,
2013-01-02 08:58:00,16.8,11.1,28.14,WNW,300,0.0,14.0,78,0.00,,,0.84,WUHU216DAVISWMX,2013-01-02 13:58:00,
2013-01-02 09:03:00,16.8,11.1,28.14,WNW,300,0.0,14.0,78,0.00,,,0.84,WUHU216DAVISWMX,2013-01-02 14:03:00,
2013-01-02 09:08:00,16.8,11.1,28.13,WNW,300,0.0,0.0,78,0.00,,,0.84,WUHU216DAVISWMX,2013-01-02 14:08:00,
2013-01-02 09:13:00,16.8,11.1,28.14,WNW,300,0.0,0.0,78,0.00,,,0.84,WUHU216DAVISWMX,2013-01-02 14:13:00,
2013-01-02 09:18:00,16.8,11.1,28.14,WNW,300,0.0,0.0,78,0.00,,,0.84,WUHU216DAVISWMX,2013-01-02 14:18:00,
2013-01-02 09:23:00,16.8,11.1,28.14,WNW,300,0.0,0.0,78,0.00,,,0.84,WUHU216DAVISWMX,2013-01-02 14:23:00,
2013-01-02 09:25:00,16.8,11.1,28.15,WNW,300,0.0,0.0,78,0.00,,,0.84,WUHU216DAVISWMX,2013-01-02 14:25:00,
2013-01-02 09:28:00,16.8,11.1,28.15,WNW,300,0.0,0.0,78,0.00,,,0.84,WUHU216DAVISWMX,2013-01-02 14:28:00,
2013-01-02 09:33:00,16.8,11.1,28.15,WNW,300,0.0,0.0,78,0.00,,,0.84,WUHU216DAVISWMX,2013-01-02 14:33:00,
2013-01-02 10:07:00,17.0,10.2,28.16,WNW,299,5.0,5.0,74,0.00,,,0.84,WUHU216DAVISWMX,2013-01-02 15:07:00,
2013-01-02 10:12:00,17.2,10.4,28.16,WNW,295,6.0,11.0,74,0.00,,,0.84,WUHU216DAVISWMX,2013-01-02 15:12:00,
2013-01-02 10:17:00,17.3,10.2,28.16,NW,311,9.0,13.0,73,0.00,,,0.84,WUHU216DAVISWMX,2013-01-02 15:17:00,
2013-01-02 10:22:00,17.3,10.2,28.16,WNW,288,3.0,13.0,73,0.00,,,0.84,WUHU216DAVISWMX,2013-01-02 15:22:00,
2013-01-02 10:27:00,17.2,9.8,28.16,NW,315,5.0,14.0,72,0.00,,,0.84,WUHU216DAVISWMX,2013-01-02 15:27:00,
2013-01-02 10:32:00,17.3,10.2,28.17,WNW,296,9.0,14.0,73,0.00,,,0.84,WUHU216DAVISWMX,2013-01-02 15:32:00,
2013-01-02 10:37:00,17.4,10.0,28.16,WNW,284,9.0,13.0,72,0.00,,,0.84,WUHU216DAVISWMX,2013-01-02 15:37:00,
2013-01-02 10:42:00,17.6,10.1,28.16,NW,307,6.0,14.0,72,0.00,,,0.84,WUHU216DAVISWMX,2013-01-02 15:42:00,
2013-01-02 10:47:00,17.8,10.0,28.16,WNW,290,10.0,14.0,71,0.00,,,0.84,WUHU216DAVISWMX,2013-01-02 15:47:00,
2013-01-02 10:52:00,17.4,9.6,28.17,West,277,5.0,12.0,71,0.00,,,0.84,WUHU216DAVISWMX,2013-01-02 15:52:00,
2013-01-02 10:57:00,17.6,9.8,28.16,NNW,329,7.0,12.0,71,0.00,,,0.84,WUHU216DAVISWMX,2013-01-02 15:57:00,
2013-01-02 11:02:00,17.4,9.6,28.17,West,280,11.0,15.0,71,0.00,,,0.84,WUHU216DAVISWMX,2013-01-02 16:02:00,
2013-01-02 11:07:00,17.1,9.4,28.16,WNW,288,9.0,15.0,71,0.00,,,0.84,WUHU216DAVISWMX,2013-01-02 16:07:00,
2013-01-02 11:12:00,17.6,10.1,28.16,WNW,287,10.0,15.0,72,0.00,,,0.84,WUHU216DAVISWMX,2013-01-02 16:12:00,
2013-01-02 11:17:00,17.6,9.8,28.16,NW,314,6.0,13.0,71,0.00,,,0.84,WUHU216DAVISWMX,2013-01-02 16:17:00,
2013-01-02 11:22:00,17.6,9.8,28.16,NW,325,0.0,13.0,71,0.00,,,0.84,WUHU216DAVISWMX,2013-01-02 16:22:00,
2013-01-02 11:27:00,17.6,9.8,28.15,NW,325,0.0,10.0,71,0.00,,,0.84,WUHU216DAVISWMX,2013-01-02 16:27:00,
2013-01-02 11:32:00,17.6,9.8,28.16,NW,325,0.0,0.0,71,0.00,,,0.84,WUHU216DAVISWMX,2013-01-02 16:32:00,
2013-01-02 11:37:00,17.6,9.5,28.16,NW,325,0.0,0.0,70,0.00,,,0.84,WUHU216DAVISWMX,2013-01-02 16:37:00,
2013-01-02 11:42:00,17.6,9.8,28.16,NW,325,0.0,0.0,71,0.00,,,0.84,WUHU216DAVISWMX,2013-01-02 16:42:00,
2013-01-02 11:45:00,17.6,9.8,28.16,NW,325,0.0,0.0,71,0.00,,,0.84,WUHU216DAVISWMX,2013-01-02 16:45:00,
2013-01-02 11:47:00,17.6,9.8,28.16,NW,325,0.0,0.0,71,0.00,,,0.84,WUHU216DAVISWMX,2013-01-02 16:47:00,
2013-01-02 11:52:00,17.6,9.8,28.16,NW,325,0.0,0.0,71,0.00,,,0.84,WUHU216DAVISWMX,2013-01-02 16:52:00,
2013-01-02 12:34:00,12.0,3.8,28.16,NNW,331,2.0,2.0,69,0.00,,,0.84,WUHU216DAVISWMX,2013-01-02 17:34:00,
2013-01-02 12:39:00,19.2,11.1,28.15,West,275,5.0,11.0,70,0.00,,,0.84,WUHU216DAVISWMX,2013-01-02 17:39:00,
2013-01-02 12:44:00,19.2,10.4,28.15,NW,304,11.0,14.0,68,0.00,,,0.84,WUHU216DAVISWMX,2013-01-02 17:44:00,
2013-01-02 12:49:00,19.1,10.3,28.15,NW,307,0.0,14.0,68,0.00,,,0.84,WUHU216DAVISWMX,2013-01-02 17:49:00,
2013-01-02 12:54:00,19.1,10.6,28.15,NW,307,0.0,14.0,69,0.00,,,0.84,WUHU216DAVISWMX,2013-01-02 17:54:00,
2013-01-02 12:59:00,19.1,10.3,28.15,NW,307,0.0,0.0,68,0.00,,,0.84,WUHU216DAVISWMX,2013-01-02 17:59:00,
2013-01-02 13:04:00,19.1,10.3,28.15,NW,307,0.0,0.0,68,0.00,,,0.84,WUHU216DAVISWMX,2013-01-02 18:04:00,
2013-01-02 13:09:00,19.1,10.6,28.15,NW,307,0.0,0.0,69,0.00,,,0.84,WUHU216DAVISWMX,2013-01-02 18:09:00,
2013-01-02 13:14:00,19.1,10.3,28.15,NW,307,0.0,0.0,68,0.00,,,0.84,WUHU216DAVISWMX,2013-01-02 18:14:00,
2013-01-02 13:16:00,15.6,7.0,28.15,NW,320,0.0,0.0,68,0.00,,,0.84,WUHU216DAVISWMX,2013-01-02 18:16:00,
2013-01-02 13:19:00,19.1,10.3,28.15,NW,307,0.0,0.0,68,0.00,,,0.84,WUHU216DAVISWMX,2013-01-02 18:19:00,
2013-01-02 13:24:00,15.6,7.0,28.15,NW,320,0.0,0.0,68,0.00,,,0.84,WUHU216DAVISWMX,2013-01-02 18:24:00,
2013-01-02 13:56:00,20.9,11.7,28.15,West,280,7.0,7.0,67,0.00,,,0.84,WUHU216DAVISWMX,2013-01-02 18:56:00,
2013-01-02 14:01:00,21.2,11.3,28.15,NW,313,5.0,11.0,65,0.00,,,0.84,WUHU216DAVISWMX,2013-01-02 19:01:00,
2013-01-02 14:06:00,20.9,10.7,28.14,WNW,291,5.0,11.0,64,0.00,,,0.84,WUHU216DAVISWMX,2013-01-02 19:06:00,
2013-01-02 14:11:00,21.3,11.4,28.15,WNW,283,13.0,13.0,65,0.00,,,0.84,WUHU216DAVISWMX,2013-01-02 19:11:00,
2013-01-02 14:16:00,21.3,10.7,28.14,WNW,290,4.0,13.0,63,0.00,,,0.84,WUHU216DAVISWMX,2013-01-02 19:16:00,
2013-01-02 14:21:00,21.4,10.8,28.15,WNW,296,5.0,13.0,63,0.00,,,0.84,WUHU216DAVISWMX,2013-01-02 19:21:00,
2013-01-02 14:26:00,21.2,10.6,28.15,WNW,295,7.0,11.0,63,0.00,,,0.84,WUHU216DAVISWMX,2013-01-02 19:26:00,
2013-01-02 14:31:00,21.2,10.6,28.15,WNW,287,5.0,10.0,63,0.00,,,0.84,WUHU216DAVISWMX,2013-01-02 19:31:00,
2013-01-02 14:36:00,21.2,10.6,28.15,NW,317,9.0,9.0,63,0.00,,,0.84,WUHU216DAVISWMX,2013-01-02 19:36:00,
2013-01-02 14:41:00,21.2,10.6,28.15,WNW,293,6.0,11.0,63,0.00,,,0.84,WUHU216DAVISWMX,2013-01-02 19:41:00,
2013-01-02 14:46:00,21.4,10.8,28.15,WNW,298,5.0,11.0,63,0.00,,,0.84,WUHU216DAVISWMX,2013-01-02 19:46:00,
2013-01-02 14:51:00,21.4,10.1,28.15,NW,317,9.0,14.0,61,0.00,,,0.84,WUHU216DAVISWMX,2013-01-02 19:51:00,
2013-01-02 14:56:00,21.2,10.2,28.15,WNW,302,4.0,14.0,62,0.00,,,0.84,WUHU216DAVISWMX,2013-01-02 19:56:00,
2013-01-02 15:01:00,21.4,10.4,28.15,WNW,300,7.0,11.0,62,0.00,,,0.84,WUHU216DAVISWMX,2013-01-02 20:01:00,
2013-01-02 15:06:00,21.4,10.4,28.15,WNW,298,2.0,10.0,62,0.00,,,0.84,WUHU216DAVISWMX,2013-01-02 20:06:00,
2013-01-02 15:11:00,21.5,10.2,28.15,NW,326,4.0,12.0,61,0.00,,,0.84,WUHU216DAVISWMX,2013-01-02 20:11:00,
2013-01-02 15:16:00,21.3,9.6,28.16,WNW,300,6.0,12.0,60,0.00,,,0.84,WUHU216DAVISWMX,2013-01-02 20:16:00,
2013-01-02 15:21:00,21.3,10.0,28.16,WNW,298,8.0,14.0,61,0.00,,,0.84,WUHU216DAVISWMX,2013-01-02 20:21:00,
2013-01-02 15:26:00,21.1,9.8,28.16,WNW,283,3.0,14.0,61,0.00,,,0.84,WUHU216DAVISWMX,2013-01-02 20:26:00,
2013-01-02 15:31:00,21.2,9.9,28.16,WNW,283,8.0,12.0,61,0.00,,,0.84,WUHU216DAVISWMX,2013-01-02 20:31:00,
2013-01-02 15:36:00,21.2,9.9,28.16,West,281,8.0,13.0,61,0.00,,,0.84,WUHU216DAVISWMX,2013-01-02 20:36:00,
2013-01-02 15:41:00,21.2,9.9,28.15,NW,308,9.0,13.0,61,0.00,,,0.84,WUHU216DAVISWMX,2013-01-02 20:41:00,
2013-01-02 15:46:00,21.3,10.0,28.16,NW,314,0.0,12.0,61,0.00,,,0.84,WUHU216DAVISWMX,2013-01-02 20:46:00,
2013-01-02 15:51:00,21.2,9.9,28.16,NW,314,0.0,12.0,61,0.00,,,0.84,WUHU216DAVISWMX,2013-01-02 20:51:00,
2013-01-02 15:56:00,21.3,10.0,28.16,NW,314,0.0,0.0,61,0.00,,,0.84,WUHU216DAVISWMX,2013-01-02 20:56:00,
2013-01-02 16:01:00,21.2,9.9,28.16,NW,314,0.0,0.0,61,0.00,,,0.84,WUHU216DAVISWMX,2013-01-02 21:01:00,
2013-01-02 16:06:00,21.2,9.9,28.17,NW,314,0.0,0.0,61,0.00,,,0.84,WUHU216DAVISWMX,2013-01-02 21:06:00,
2013-01-02 16:10:00,21.2,9.9,28.17,NW,314,0.0,0.0,61,0.00,,,0.84,WUHU216DAVISWMX,2013-01-02 21:10:00,
2013-01-02 16:11:00,21.2,9.9,28.17,NW,314,0.0,0.0,61,0.00,,,0.84,WUHU216DAVISWMX,2013-01-02 21:11:00,
2013-01-02 16:16:00,21.2,9.9,28.17,NW,314,0.0,0.0,61,0.00,,,0.84,WUHU216DAVISWMX,2013-01-02 21:16:00,
2013-01-02 17:00:00,19.4,9.3,28.16,NW,325,0.0,0.0,64,0.00,,,0.84,WUHU216DAVISWMX,2013-01-02 22:00:00,
2013-01-02 17:05:00,19.4,9.6,28.16,WNW,296,0.0,5.0,65,0.00,,,0.84,WUHU216DAVISWMX,2013-01-02 22:05:00,
2013-01-02 17:10:00,19.1,9.7,28.16,WNW,295,1.0,7.0,66,0.00,,,0.84,WUHU216DAVISWMX,2013-01-02 22:10:00,
2013-01-02 17:15:00,18.9,9.5,28.16,WNW,295,0.0,7.0,66,0.00,,,0.84,WUHU216DAVISWMX,2013-01-02 22:15:00,
2013-01-02 17:20:00,18.9,9.1,28.16,WNW,295,0.0,4.0,65,0.00,,,0.84,WUHU216DAVISWMX,2013-01-02 22:20:00,
2013-01-02 17:25:00,18.9,9.5,28.16,WNW,295,0.0,0.0,66,0.00,,,0.84,WUHU216DAVISWMX,2013-01-02 22:25:00,
2013-01-02 17:30:00,18.9,9.5,28.16,WNW,295,0.0,0.0,66,0.00,,,0.84,WUHU216DAVISWMX,2013-01-02 22:30:00,
2013-01-02 17:35:00,18.9,9.5,28.16,WNW,295,0.0,0.0,66,0.00,,,0.84,WUHU216DAVISWMX,2013-01-02 22:35:00,
2013-01-02 17:39:00,18.9,9.5,28.16,WNW,302,0.0,0.0,66,0.00,,,0.84,WUHU216DAVISWMX,2013-01-02 22:39:00,
2013-01-02 17:40:00,19.0,9.6,28.16,WNW,295,0.0,0.0,66,0.00,,,0.84,WUHU216DAVISWMX,2013-01-02 22:40:00,
2013-01-02 17:45:00,18.9,9.5,28.16,WNW,302,0.0,0.0,66,0.00,,,0.84,WUHU216DAVISWMX,2013-01-02 22:45:00,
2013-01-02 18:12:00,16.6,9.5,28.18,WNW,293,0.0,0.0,73,0.00,,,0.84,WUHU216DAVISWMX,2013-01-02 23:12:00,
2013-01-02 18:17:00,16.6,9.5,28.18,WNW,292,0.0,2.0,73,0.00,,,0.84,WUHU216DAVISWMX,2013-01-02 23:17:00,
2013-01-02 18:22:00,16.6,9.5,28.17,WNW,292,0.0,2.0,73,0.00,,,0.84,WUHU216DAVISWMX,2013-01-02 23:22:00,
2013-01-02 18:27:00,16.5,9.4,28.18,WNW,292,0.0,0.0,73,0.00,,,0.84,WUHU216DAVISWMX,2013-01-02 23:27:00,
2013-01-02 18:32:00,16.6,9.8,28.17,WNW,292,0.0,2.0,74,0.00,,,0.84,WUHU216DAVISWMX,2013-01-02 23:32:00,
2013-01-02 18:37:00,16.9,10.1,28.18,WNW,292,0.0,2.0,74,0.00,,,0.84,WUHU216DAVISWMX,2013-01-02 23:37:00,
2013-01-02 18:42:00,17.2,10.4,28.18,WNW,292,0.0,2.0,74,0.00,,,0.84,WUHU216DAVISWMX,2013-01-02 23:42:00,
2013-01-02 18:47:00,17.6,10.5,28.18,WNW,292,0.0,2.0,73,0.00,,,0.84,WUHU216DAVISWMX,2013-01-02 23:47:00,
2013-01-02 18:52:00,17.4,10.3,28.18,WNW,292,0.0,0.0,73,0.00,,,0.84,WUHU216DAVISWMX,2013-01-02 23:52:00,
2013-01-02 18:57:00,17.1,10.0,28.18,WNW,292,0.0,0.0,73,0.00,,,0.84,WUHU216DAVISWMX,2013-01-02 23:57:00,
2013-01-02 19:02:00,16.7,9.6,28.18,WNW,292,0.0,0.0,73,0.00,,,0.84,WUHU216DAVISWMX,2013-01-03 00:02:00,
2013-01-02 19:07:00,16.2,9.1,28.18,WNW,292,0.0,0.0,73,0.00,,,0.84,WUHU216DAVISWMX,2013-01-03 00:07:00,
2013-01-02 19:12:00,15.7,8.9,28.19,WNW,292,0.0,0.0,74,0.00,,,0.84,WUHU216DAVISWMX,2013-01-03 00:12:00,
2013-01-02 19:17:00,15.4,8.9,28.18,WNW,292,0.0,0.0,75,0.00,,,0.84,WUHU216DAVISWMX,2013-01-03 00:17:00,
2013-01-02 19:22:00,15.3,9.1,28.19,WNW,292,0.0,0.0,76,0.00,,,0.84,WUHU216DAVISWMX,2013-01-03 00:22:00,
2013-01-02 19:27:00,15.1,9.2,28.19,WNW,292,0.0,0.0,77,0.00,,,0.84,WUHU216DAVISWMX,2013-01-03 00:27:00,
2013-01-02 19:32:00,14.9,9.0,28.19,WNW,292,0.0,0.0,77,0.00,,,0.84,WUHU216DAVISWMX,2013-01-03 00:32:00,
2013-01-02 19:37:00,15.1,9.5,28.18,WNW,292,0.0,0.0,78,0.00,,,0.84,WUHU216DAVISWMX,2013-01-03 00:37:00,
2013-01-02 19:42:00,15.1,9.5,28.19,WNW,292,0.0,0.0,78,0.00,,,0.84,WUHU216DAVISWMX,2013-01-03 00:42:00,
2013-01-02 19:47:00,15.1,9.5,28.19,WNW,292,0.0,0.0,78,0.00,,,0.84,WUHU216DAVISWMX,2013-01-03 00:47:00,
2013-01-02 19:52:00,15.1,9.5,28.19,WNW,292,0.0,0.0,78,0.00,,,0.84,WUHU216DAVISWMX,2013-01-03 00:52:00,
2013-01-02 19:57:00,15.1,9.5,28.19,WNW,292,0.0,0.0,78,0.00,,,0.84,WUHU216DAVISWMX,2013-01-03 00:57:00,
2013-01-02 20:02:00,15.1,9.5,28.18,WNW,292,0.0,0.0,78,0.00,,,0.84,WUHU216DAVISWMX,2013-01-03 01:02:00,
2013-01-02 20:07:00,15.1,9.5,28.18,WNW,292,0.0,0.0,78,0.00,,,0.84,WUHU216DAVISWMX,2013-01-03 01:07:00,
2013-01-02 20:10:00,15.1,9.5,28.19,WNW,292,0.0,0.0,78,0.00,,,0.84,WUHU216DAVISWMX,2013-01-03 01:10:00,
2013-01-02 20:12:00,15.1,9.5,28.19,WNW,292,0.0,0.0,78,0.00,,,0.84,WUHU216DAVISWMX,2013-01-03 01:12:00,
2013-01-02 20:17:00,15.1,9.5,28.19,WNW,292,0.0,0.0,78,0.00,,,0.84,WUHU216DAVISWMX,2013-01-03 01:17:00,
2013-01-02 20:42:00,11.7,6.4,28.19,WNW,298,0.0,0.0,79,0.00,,,0.84,WUHU216DAVISWMX,2013-01-03 01:42:00,
2013-01-02 20:47:00,15.0,9.7,28.19,WNW,292,0.0,2.0,79,0.00,,,0.84,WUHU216DAVISWMX,2013-01-03 01:47:00,
2013-01-02 20:52:00,15.6,10.0,28.19,WNW,292,0.0,2.0,78,0.00,,,0.84,WUHU216DAVISWMX,2013-01-03 01:52:00,
2013-01-02 20:57:00,16.0,10.1,28.19,WNW,292,0.0,2.0,77,0.00,,,0.84,WUHU216DAVISWMX,2013-01-03 01:57:00,
2013-01-02 21:02:00,15.5,9.6,28.19,WNW,291,0.0,2.0,77,0.00,,,0.84,WUHU216DAVISWMX,2013-01-03 02:02:00,
2013-01-02 21:07:00,15.1,8.9,28.20,WNW,291,0.0,0.0,76,0.00,,,0.84,WUHU216DAVISWMX,2013-01-03 02:07:00,
2013-01-02 21:12:00,14.8,8.6,28.20,WNW,292,0.0,0.0,76,0.00,,,0.84,WUHU216DAVISWMX,2013-01-03 02:12:00,
2013-01-02 21:17:00,14.8,8.9,28.20,WNW,291,0.0,0.0,77,0.00,,,0.84,WUHU216DAVISWMX,2013-01-03 02:17:00,
2013-01-02 21:22:00,14.9,9.3,28.20,WNW,291,0.0,0.0,78,0.00,,,0.84,WUHU216DAVISWMX,2013-01-03 02:22:00,
2013-01-02 21:27:00,14.9,9.3,28.20,WNW,291,0.0,0.0,78,0.00,,,0.84,WUHU216DAVISWMX,2013-01-03 02:27:00,
2013-01-02 21:32:00,15.1,9.2,28.20,WNW,291,0.0,0.0,77,0.00,,,0.84,WUHU216DAVISWMX,2013-01-03 02:32:00,
2013-01-02 21:37:00,15.1,9.2,28.20,WNW,291,0.0,0.0,77,0.00,,,0.84,WUHU216DAVISWMX,2013-01-03 02:37:00,
2013-01-02 21:42:00,15.4,9.8,28.21,WNW,291,0.0,0.0,78,0.00,,,0.84,WUHU216DAVISWMX,2013-01-03 02:42:00,
2013-01-02 21:47:00,15.4,9.5,28.21,WNW,291,0.0,0.0,77,0.00,,,0.84,WUHU216DAVISWMX,2013-01-03 02:47:00,
2013-01-02 21:52:00,15.4,9.2,28.21,WNW,291,0.0,0.0,76,0.00,,,0.84,WUHU216DAVISWMX,2013-01-03 02:52:00,
2013-01-02 21:57:00,15.1,8.9,28.21,WNW,291,0.0,0.0,76,0.00,,,0.84,WUHU216DAVISWMX,2013-01-03 02:57:00,
2013-01-02 22:02:00,15.3,9.1,28.21,WNW,291,0.0,0.0,76,0.00,,,0.84,WUHU216DAVISWMX,2013-01-03 03:02:00,
2013-01-02 22:07:00,15.3,9.4,28.21,WNW,291,0.0,0.0,77,0.00,,,0.84,WUHU216DAVISWMX,2013-01-03 03:07:00,
2013-01-02 22:12:00,15.4,9.2,28.21,WNW,291,0.0,0.0,76,0.00,,,0.84,WUHU216DAVISWMX,2013-01-03 03:12:00,
2013-01-02 22:17:00,15.6,9.4,28.21,WNW,291,0.0,0.0,76,0.00,,,0.84,WUHU216DAVISWMX,2013-01-03 03:17:00,
2013-01-02 22:22:00,15.6,9.4,28.21,WNW,291,0.0,0.0,76,0.00,,,0.84,WUHU216DAVISWMX,2013-01-03 03:22:00,
2013-01-02 22:27:00,15.8,9.6,28.20,WNW,291,0.0,0.0,76,0.00,,,0.84,WUHU216DAVISWMX,2013-01-03 03:27:00,
2013-01-02 22:32:00,15.7,9.5,28.20,WNW,291,0.0,0.0,76,0.00,,,0.84,WUHU216DAVISWMX,2013-01-03 03:32:00,
2013-01-02 22:38:00,15.8,9.6,28.21,WNW,291,0.0,0.0,76,0.00,,,0.84,WUHU216DAVISWMX,2013-01-03 03:38:00,
2013-01-02 22:44:00,15.7,9.2,28.21,WNW,291,0.0,0.0,75,0.00,,,0.84,WUHU216DAVISWMX,2013-01-03 03:44:00,
2013-01-02 22:49:00,15.9,9.4,28.21,WNW,291,0.0,0.0,75,0.00,,,0.84,WUHU216DAVISWMX,2013-01-03 03:49:00,
2013-01-02 22:54:00,15.7,9.2,28.21,WNW,291,0.0,0.0,75,0.00,,,0.84,WUHU216DAVISWMX,2013-01-03 03:54:00,
2013-01-02 22:59:00,15.8,9.3,28.21,WNW,291,0.0,0.0,75,0.00,,,0.84,WUHU216DAVISWMX,2013-01-03 03:59:00,
2013-01-02 23:04:00,15.6,8.8,28.21,WNW,291,0.0,0.0,74,0.00,,,0.84,WUHU216DAVISWMX,2013-01-03 04:04:00,
2013-01-02 23:09:00,15.4,8.9,28.21,WNW,291,0.0,0.0,75,0.00,,,0.84,WUHU216DAVISWMX,2013-01-03 04:09:00,
2013-01-02 23:14:00,15.4,8.9,28.21,WNW,291,0.0,0.0,75,0.00,,,0.84,WUHU216DAVISWMX,2013-01-03 04:14:00,
2013-01-02 23:19:00,15.3,8.8,28.20,WNW,291,0.0,0.0,75,0.00,,,0.84,WUHU216DAVISWMX,2013-01-03 04:19:00,
2013-01-02 23:24:00,15.3,8.8,28.21,WNW,291,0.0,0.0,75,0.00,,,0.84,WUHU216DAVISWMX,2013-01-03 04:24:00,
2013-01-02 23:29:00,15.1,8.6,28.21,WNW,291,0.0,0.0,75,0.00,,,0.84,WUHU216DAVISWMX,2013-01-03 04:29:00,
2013-01-02 23:34:00,15.1,8.6,28.20,WNW,291,0.0,0.0,75,0.00,,,0.84,WUHU216DAVISWMX,2013-01-03 04:34:00,
2013-01-02 23:39:00,15.0,8.5,28.21,WNW,291,0.0,0.0,75,0.00,,,0.84,WUHU216DAVISWMX,2013-01-03 04:39:00,
2013-01-02 23:44:00,15.0,8.5,28.21,WNW,291,0.0,0.0,75,0.00,,,0.84,WUHU216DAVISWMX,2013-01-03 04:44:00,
2013-01-02 23:49:00,15.0,8.5,28.20,WNW,291,0.0,0.0,75,0.00,,,0.84,WUHU216DAVISWMX,2013-01-03 04:49:00,
2013-01-02 23:54:00,15.0,8.8,28.20,WNW,291,0.0,0.0,76,0.00,,,0.84,WUHU216DAVISWMX,2013-01-03 04:54:00,
2013-01-02 23:59:00,14.8,8.6,28.20,WNW,291,0.0,1.0,76,0.00,,,0.84,WUHU216DAVISWMX,2013-01-03 04:59:00,